Plovdiv, Bulgaria

5:36 PM EET on March 23, 2017 (GMT +0200)
Plovdiv

Weather History for LBPD - March, 2014

Change the Weather History Date:

Tuesday, March 4, 2014

  Actual Average Record
Temperature  
Mean Temperature 46 °F -  
Max Temperature 50 °F - - ()
Min Temperature 42 °F - - ()
Degree Days  
Heating Degree Days 19    
Moisture  
Dew Point 45 °F    
Average Humidity 96    
Maximum Humidity 100    
Minimum Humidity 82    
Precipitation  
Precipitation 0.00 in - - ()
Sea Level Pressure  
Sea Level Pressure 29.54 in    
Wind  
Wind Speed 4 mph ()    
Max Wind Speed 7 mph    
Max Gust Speed -    
Visibility 5.1 miles    
Events Rain    
T = Trace of Precipitation, MM = Missing Value Source: Averaged Metar Reports

Daily Weather History Graph

Daily Weather History Graph

Search for Another Location

Airport or City:

Trip Planner

Search our weather history database for the weather conditions in past years. The results will help you decide how hot, cold, wet, or windy it might be!

Date:

Astronomy

Mar. 04, 2014 Rise Set
Actual Time 6:51 AM EET 6:14 PM EET
Civil Twilight 6:23 AM EET 6:42 PM EET
Nautical Twilight 5:51 AM EET 7:14 PM EET
Astronomical Twilight 5:19 AM EET 7:47 PM EET
Moon 8:21 AM EET (3/4) 10:06 PM EET (3/4)
Length of Visible Light 12h 18m
Length of Day
11h 22m
Waxing Crescent, 12% of the Moon is Illuminated
Mar 4
Waxing Crescent
Mar 8
First Quarter
Mar 16
Full
Mar 24
Last Quarter
Mar 30
New

Hourly Weather History & Observations

Time (EET) Temp. Windchill Dew Point Humidity Pressure Visibility Wind Dir Wind Speed Gust Speed Precip Events Conditions
12:00 AM 42.8 °F 40.2 °F 42.8 °F 100% 29.47 in 5.6 mi WNW 4.5 mph - N/A Rain Light Rain
1:00 AM 42.8 °F 38.7 °F 42.8 °F 100% 29.47 in 5.6 mi WNW 6.7 mph - N/A Rain Light Rain
2:00 AM 42.8 °F 38.7 °F 42.8 °F 100% 29.47 in 5.0 mi West 6.7 mph - N/A Rain Light Rain
3:00 AM 42.8 °F 38.7 °F 42.8 °F 100% 29.44 in 4.3 mi West 6.7 mph - N/A   Drizzle
4:00 AM 42.8 °F 40.2 °F 42.8 °F 100% 29.47 in 5.6 mi West 4.5 mph - N/A   Drizzle
5:00 AM 42.8 °F 38.7 °F 42.8 °F 100% 29.47 in 1.9 mi West 6.7 mph - N/A   Drizzle
5:33 AM 42.8 °F 38.7 °F 42.8 °F 100% 29.47 in 1.6 mi WNW 6.7 mph - N/A   Heavy Drizzle
6:00 AM 42.8 °F 40.2 °F 42.8 °F 100% 29.47 in - WNW 4.5 mph - N/A   Drizzle
7:00 AM 42.8 °F 40.2 °F 42.8 °F 100% 29.50 in - Variable 4.5 mph - N/A   Drizzle
8:00 AM 42.8 °F 40.2 °F 42.8 °F 100% 29.50 in 5.0 mi West 4.5 mph - N/A   Light Drizzle
9:00 AM 42.8 °F - 42.8 °F 100% 29.53 in 4.3 mi Variable 2.2 mph - N/A   Overcast
10:00 AM 44.6 °F - 44.6 °F 100% 29.53 in 3.1 mi Calm Calm - N/A   Drizzle
11:00 AM 46.4 °F - 44.6 °F 93% 29.56 in 6.2 mi Variable 2.2 mph - N/A Rain Light Rain
11:21 AM 48.2 °F - 46.4 °F 93% 29.56 in 6.2 mi Variable 2.2 mph - N/A Rain Light Rain
12:00 PM 48.2 °F - 46.4 °F 93% 29.56 in 6.2 mi Variable 2.2 mph - N/A   Overcast
1:00 PM 50.0 °F - 44.6 °F 82% 29.56 in 6.2 mi Variable 2.2 mph - N/A   Overcast
2:00 PM 50.0 °F - 46.4 °F 87% 29.56 in 6.2 mi Variable 4.5 mph - N/A   Overcast
3:00 PM 50.0 °F - 46.4 °F 87% 29.56 in 6.2 mi Variable 2.2 mph - N/A   Overcast
4:00 PM 50.0 °F - 46.4 °F 87% 29.56 in 6.2 mi Variable 4.5 mph - N/A   Overcast
5:00 PM 50.0 °F - 46.4 °F 87% 29.59 in 6.2 mi ESE 4.5 mph - N/A   Mostly Cloudy
6:00 PM 50.0 °F - 46.4 °F 87% 29.59 in 6.2 mi SE 4.5 mph - N/A   Overcast
7:00 PM 50.0 °F - 48.2 °F 94% 29.59 in 6.2 mi Variable 4.5 mph - N/A   Overcast
8:00 PM 48.2 °F - 48.2 °F 100% 29.62 in 4.3 mi Variable 2.2 mph - N/A   Overcast
9:00 PM 48.2 °F - 48.2 °F 100% 29.65 in 5.0 mi Variable 2.2 mph - N/A   Overcast
10:00 PM 48.2 °F - 48.2 °F 100% 29.65 in 4.3 mi Variable 2.2 mph - N/A   Overcast
11:00 PM 48.2 °F - 48.2 °F 100% 29.65 in 3.7 mi Variable 2.2 mph - N/A   Overcast